Flag for Germany Weather past 2 weeks in Amberg, Bavaria, Germany

Now
57 °F

Scattered clouds.


Feels Like: 57 °F
Forecast: 47 / 68 °F
Wind: 3 mph from North

Location: Hohenfels

Current Time: Sep 2, 2015 at 8:31:00 AM

Latest Report: Sep 2, 2015 at 7:58 AM


Visibility: N/A

Pressure: 30.04 "Hg

Humidity: 94%

Dew point: 55 °F

Location of AmbergLocation

Historic Weather in Amberg — Graph

°F

Amberg temperature yesterday

Maximum temperature yesterday: 88 °F (at 1:58 PM)
Minimum temperature yesterday: 59 °F (at 6:58 AM)
Average temperature yesterday: 72 °F

Past Weeks' High & Low Weather Summary

 TemperatureHumidityPressure
High91 °F (Aug 30, 3:58 PM)100% (Aug 18, 6:00 AM)30.29 "Hg (Aug 18, 6:00 AM)
Low45 °F (Aug 22, 5:58 AM)28% (Aug 31, 4:58 PM)29.69 "Hg (Aug 24, 6:58 PM)
Average66 °F71%30.03 "Hg
* Reported Aug 18 6:00 AM — Sep 2 6:58 AM, Amberg, Weather by CustomWeather, © 2015

Note: Actual official high and low records may vary slightly from our data, if they occured in-between our weather recording intervals... More about our weather records

Advertising

Amberg weather history for previous 24 hours

 ConditionsComfort  
Time TempWeatherWind HumidityBarometerVisibility
6:58 AM
Wed, Sep 2
55 °FOvercast.No wind100%30.03 "HgN/A
5:58 AM54 °FPartly cloudy.1 mph100%30.03 "HgN/A
4:58 AM54 °FPassing clouds.2 mph100%30.01 "HgN/A
3:58 AM55 °FPassing clouds.No wind94%30.01 "HgN/A
2:58 AM55 °FPassing clouds.No wind100%30.00 "HgN/A
1:58 AM55 °FClear.3 mph100%29.99 "HgN/A
12:58 AM59 °FClear.No wind94%29.97 "HgN/A
10:58 PM
Tue, Sep 1
59 °FPassing clouds.8 mph94%29.94 "HgN/A
9:58 PM61 °FLight rain. Partly cloudy.9 mph94%29.92 "HgN/A
8:58 PM63 °FRain. Overcast.10 mph88%29.90 "HgN/A
7:58 PM66 °FHeavy rain. Mostly cloudy.9 mph83%29.86 "Hg6 mi
6:58 PM72 °FPartly sunny.7 mph61%29.83 "HgN/A
5:58 PM72 °FOvercast.10 mph61%29.82 "HgN/A
4:58 PM77 °FScattered clouds.13 mph51%29.81 "HgN/A
3:58 PM79 °FScattered clouds.8 mph51%29.76 "HgN/A
2:58 PM88 °FPassing clouds.5 mph31%29.74 "HgN/A
1:58 PM88 °FPassing clouds.7 mph33%29.75 "HgN/A
12:58 PM86 °FSunny.No wind35%29.76 "HgN/A
11:58 AM84 °FSunny.6 mph40%29.77 "HgN/A
10:58 AM81 °FSunny.6 mph45%29.79 "HgN/A
9:58 AM75 °FSunny.5 mph54%29.81 "HgN/A
8:58 AM70 °FSunny.2 mph64%29.82 "HgN/A
Weather by CustomWeather, © 2015

See weather overviewHow to use our weather pages